User: anonymous   Login
Location: Unspecified
(0.0000°N, 0.0000°E)
Time: 19:32:18
(UTC+00:00)
Language:

Aussat K2 - Orbit

View from above orbital plane
View from above orbital plane
View from above satellite
View from above satellite

Ground track
Ground track

The orbit data is extracted from the following two-line orbital elements,

1 16275U 85109C   14349.01137036 -.00000002  00000-0  00000+0 0  5523
2 16275 014.7798 018.5096 0005875 194.9620 244.7448 00.99951117 96082
Epoch (UTC): 15 December 2014 00:16:22
Eccentricity: 0.0005875
inclination: 14.7798°
perigee height: 35851 km
apogee height: 35901 km
right ascension of ascending node: 18.5096°
argument of perigee: 194.9620°
revolutions per day: 0.99951117
mean anomaly at epoch: 244.7448°
orbit number at epoch: 9608

The dashed part of the orbit path shows where the satellite is in the earth's shadow,  

DLR